Regional Weather Roundup
Issued by NWS

Home | Current Version | Previous Version | Graphics & Text | Print | Product List | Glossary On
Versions: 1 2 3 4 5 6 7 8 9 10 11 12 13 14 15 16 17 18 19 20 21 22 23 24 25 26 27 28 29 30 31 32 33 34 35 36 37 38 39 40 41 42 43 44 45 46 47 48 49 50
000
ASUS45 KBOU 031907
RWRCO

WEATHER ROUNDUP FOR COLORADO
NATIONAL WEATHER SERVICE DENVER/BOULDER CO
100 PM MDT MON AUG 03 2015

NOTE: "FAIR" INDICATES FEW OR NO CLOUDS BELOW 12000 FEET WITH NO
SIGNIFICANT WEATHER AND/OR OBSTRUCTIONS TO VISIBILITY.

COZ001>005-013-030-031-032000-
...NORTHWEST COLORADO...

CITY           SKY/WX    TMP DP  RH WIND       PRES   REMARKS
CRAIG          PTSUNNY   74  51  44 E9        30.16F
HAYDEN         PTSUNNY   70  52  52 E6        30.19F
MEEKER         PTSUNNY   76  50  40 SW14G23   30.17F
MOUNT WERNER   NOT AVBL
STEAMBOAT SPGS   N/A     69  48  46 SE5       30.22S
WALDEN         PTSUNNY   70  36  28 S8        30.27S
$$

COZ006>008-011-032000-
...WEST CENTRAL VALLEYS...

CITY           SKY/WX    TMP DP  RH WIND       PRES   REMARKS
GRAND JUNCTION PTSUNNY   80  53  39 CALM      30.09F
MONTROSE       PTSUNNY   80  53  39 SE6       30.18F
EAGLE          PTSUNNY   72  52  49 CALM      30.24F
RIFLE          PTSUNNY   74  54  49 CALM      30.13F
DELTA          NOT AVBL
NUCLA          PTSUNNY   75  55  50 CALM      30.23F
$$

COZ017>023-064>068-032000-
...SOUTHWEST COLORADO...

CITY           SKY/WX    TMP DP  RH WIND       PRES   REMARKS
DURANGO        PTSUNNY   73  49  42 W10       30.26F
CORTEZ         SUNNY     80  55  42 SW10      30.21F
PAGOSA SPRINGS PTSUNNY   72  48  43 SW12      30.32F
TELLURIDE      CLOUDY    64  46  51 W10G16    30.43S
WOLF CREEK PAS NOT AVBL
$$

COZ009-010-012-014-032>034-037-058>063-032000-
...CENTRAL COLORADO...

CITY           SKY/WX    TMP DP  RH WIND       PRES   REMARKS
ASPEN          PTSUNNY   67  53  61 N7        30.29F
BUENA VISTA    CLOUDY    66  43  42 CALM      30.31F
COPPER MTN     CLOUDY    54  41  62 SW7       30.59S
BERTHOUD PASS  CLOUDY    43  32  65 E22       30.62S
COTTONWOOD PAS CLOUDY    61  46  59 CALM      30.44S
GUNNISON       MOSUNNY   68  46  45 CALM      30.33F
KREMMLING      CLOUDY    70  36  28 S3        30.28S
LEADVILLE      CLOUDY    56  41  57 CALM      30.43S
MONARCH PASS   PTSUNNY   52  43  71 W26       30.69S
SALIDA         NOT AVBL
SUNLIGHT       RAIN      55  50  82 CALM      30.51F
WILKERSON PASS NOT AVBL
$$

COZ069>075-032000-
...SAN LUIS VALLEY/SANGRE DE CRISTO MOUNTAINS...

CITY           SKY/WX    TMP DP  RH WIND       PRES   REMARKS
ALAMOSA        SUNNY     71  50  47 CALM      30.27F
LA VETA PASS   MOSUNNY   63  46  55 MISG      30.45F
SAGUACHE       PTSUNNY   68  50  52 NE6       30.31S
$$

COZ035-036-038>040-032000-
...NORTHERN COLORADO FRONT RANGE...

CITY           SKY/WX    TMP DP  RH WIND       PRES   REMARKS
DENVER INTL AP CLOUDY    86  29  12 SE12G24   30.10F
DMNS CITY PARK   N/A     82  48  30 S2        30.10S
AURORA         PTSUNNY   82  46  28 S12G17    30.12F
FRONT RANGE AP PTSUNNY   84  30  14 SE16      30.12S
ERIE MUNI ARPT CLOUDY    80  54  41 NW5       30.09S
BOULDER MUN AP CLOUDY    79  46  31 SE6       30.10S
CENTENNIAL     CLOUDY    79  52  38 S7G18     30.13F
BROOMFIELD     CLOUDY    81  48  32 CALM      30.13S
FORT COLLINS   PTSUNNY   81  52  36 S8        30.08S
LONGMONT       PTSUNNY   83  49  31 S5        30.10S
$$

COZ041-046-047-076>085-087-088-032000-
...PIKES PEAK/PALMER DIVIDE AND SOUTHERN FOOTHILLS...

CITY           SKY/WX    TMP DP  RH WIND       PRES   REMARKS
COLO. SPRINGS  CLOUDY    77  57  50 SE6       30.16F THUNDER
A. F. ACADEMY  CLOUDY    76  53  45 E7        30.17F
ELLICOTT       LGT RAIN N/A N/A N/A SE16G25   30.15F
FALCON         CLOUDY    74  52  45 SE6       30.22F
FORT CARSON    NOT AVBL
LIMON          CLOUDY    81  53  37 SE8       30.11F
MONUMENT HILL  CLOUDY    72  50  46 SE9       30.23F
TRINIDAD       SUNNY     82  49  31 MISG      30.12F
$$

COZ042>045-048>051-090-091-032000-
...NORTHEAST COLORADO...

CITY           SKY/WX    TMP DP  RH WIND       PRES   REMARKS
GREELEY ARPT   CLOUDY    88  54  31 SW8       30.06S
AKRON          CLOUDY    84  59  42 S10       30.07F
BURLINGTON     CLOUDY    86  51  29 SE13G23   30.05F
WRAY           CLOUDY    90  59  34 E6        30.01F
STERLING       CLOUDY    90  52  27 S12       30.01S
HOLYOKE        CLOUDY    84  61  45 SE10      30.03S
FORT MORGAN    CLOUDY    85  53  33 SE7       30.06F
$$

COZ086-089-092>099-032000-
...SOUTHEAST COLORADO...

CITY           SKY/WX    TMP DP  RH WIND       PRES   REMARKS
PUEBLO         CLOUDY    80  56  43 N8        30.07F
LA JUNTA       CLOUDY    86  56  35 CALM      30.01F
LAMAR          PTSUNNY   85  66  53 NE14      29.96F
SPRINGFIELD      N/A     88  56  33 SE12      30.02F
$$



USA.gov is the U.S. government's official web portal to all federal, state and local government web resources and services.